Location: Ravensburg
(47.7866°N, 9.6124°E)
Time: 11:25:26
(UTC+02:00)

STARS - Pass Details

Date: 25 March 2026
Orbit: 575 x 588 km, 98.2° (Epoch: 18 April)

Event Time Altitude Azimuth Distance (km) Brightness Sun altitude
Rises 04:10:31 0° 354° (N) 2,800 ? -20.8°
Reaches altitude 10° 04:14:15 10° 319° (NW) 1,895 ? -20.2°
Enters shadow 04:14:16 10° 319° (NW) 1,893 ? -20.2°
